| time (UTC) | temp C | wind direction | speed KPH | gust KPH | rain 1hr cm | rain 24hr cm | rain mn cm | humidity % | barometer mb |
| 20260901010023 | 26 | 177 | 0.0 | 0.0 | 0.00 | 0.03 | 0.03 | 83 | 1017.5 |
| 20260901002856 | 26 | 177 | 0.0 | 4.8 | 0.00 | 0.33 | 0.03 | 82 | 1017.3 |
| 20260901001851 | 27 | 0 | 0.0 | 0.0 | 0.00 | 0.86 | 0.03 | 81 | 1017.1 |
| 20260901000822 | 27 | 0 | 0.0 | 0.0 | 0.00 | 1.60 | 0.03 | 79 | 1017.2 |
| 20260831235836 | 28 | 0 | 0.0 | 0.0 | 0.00 | 2.36 | 0.03 | 78 | 1017.3 |
| 20260831234806 | 28 | 0 | 0.0 | 0.0 | 0.00 | 2.84 | 0.03 | 78 | 1017.2 |
| 20260831233751 | 28 | 0 | 0.0 | 0.0 | 0.00 | 2.84 | 0.03 | 76 | 1017.1 |
| 20260831232737 | 28 | 0 | 0.0 | 0.0 | 0.00 | 2.84 | 0.03 | 77 | 1017.2 |
| 20260831231727 | 28 | 0 | 0.0 | 0.0 | 0.00 | 2.84 | 0.03 | 75 | 1017.2 |
| 20260831230740 | 28 | 0 | 0.0 | 0.0 | 0.00 | 2.84 | 0.03 | 75 | 1017.2 |
| 20260831224556 | 28 | 0 | 0.0 | 0.0 | 0.00 | 2.84 | 0.03 | 75 | 1017.5 |
| 20260831222430 | 28 | 0 | 0.0 | 0.0 | 0.00 | 2.84 | 0.03 | 75 | 1017.8 |
| 20260831221429 | 28 | 0 | 0.0 | 0.0 | 0.00 | 2.84 | 0.03 | 73 | 1018.0 |
| 20260831220354 | 28 | 0 | 0.0 | 0.0 | 0.00 | 2.84 | 0.03 | 73 | 1017.9 |
| 20260831214155 | 28 | 0 | 0.0 | 0.0 | 0.00 | 2.84 | 0.03 | 74 | 1017.9 |
| 20260831213137 | 28 | 0 | 0.0 | 0.0 | 0.00 | 2.84 | 0.03 | 76 | 1017.9 |
| 20260831212134 | 28 | 0 | 0.0 | 0.0 | 0.00 | 2.84 | 0.03 | 76 | 1017.9 |
| 20260831211135 | 28 | 0 | 0.0 | 0.0 | 0.00 | 2.84 | 0.03 | 74 | 1017.8 |
| 20260831210125 | 28 | 0 | 0.0 | 0.0 | 0.00 | 2.84 | 0.03 | 74 | 1017.8 |
| 20260831204001 | 29 | 0 | 0.0 | 0.0 | 0.00 | 2.84 | 0.03 | 72 | 1017.8 |
| 20260831202936 | 29 | 0 | 0.0 | 0.0 | 0.00 | 2.84 | 0.03 | 72 | 1017.8 |
| 20260831201923 | 29 | 0 | 0.0 | 0.0 | 0.00 | 2.84 | 0.03 | 72 | 1017.9 |
| 20260831200936 | 29 | 0 | 0.0 | 0.0 | 0.00 | 2.84 | 0.03 | 71 | 1017.9 |
| 20260831195952 | 29 | 0 | 0.0 | 0.0 | 0.00 | 2.84 | 0.03 | 73 | 1017.9 |
| 20260831194920 | 28 | 0 | 0.0 | 0.0 | 0.00 | 2.84 | 0.03 | 69 | 1017.8 |
| 20260831191646 | 29 | 0 | 0.0 | 0.0 | 0.00 | 2.84 | 0.03 | 69 | 1018.3 |
| 20260831190656 | 29 | 0 | 0.0 | 1.6 | 0.00 | 2.84 | 0.03 | 70 | 1018.4 |
| 20260831184515 | 30 | 0 | 0.0 | 0.0 | 0.00 | 2.84 | 0.03 | 68 | 1018.4 |
| 20260831183449 | 30 | 0 | 0.0 | 0.0 | 0.00 | 2.84 | 0.03 | 70 | 1018.5 |
| 20260831180224 | 31 | 98 | 0.0 | 1.6 | 0.00 | 2.84 | 0.03 | 66 | 1018.4 |
| 20260831175220 | 31 | 94 | 0.0 | 0.0 | 0.00 | 2.84 | 0.03 | 65 | 1018.4 |
| 20260831174153 | 31 | 95 | 0.0 | 0.0 | 0.00 | 2.84 | 0.03 | 65 | 1018.6 |
| 20260831173210 | 31 | 72 | 0.0 | 6.4 | 0.00 | 2.84 | 0.03 | 66 | 1018.6 |
| 20260831172217 | 31 | 88 | 0.0 | 0.0 | 0.00 | 2.84 | 0.03 | 66 | 1018.8 |
| 20260831171217 | 30 | 94 | 0.0 | 0.0 | 0.00 | 2.84 | 0.03 | 66 | 1018.7 |
| 20260831170212 | 30 | 112 | 1.6 | 0.0 | 0.00 | 2.84 | 0.03 | 67 | 1018.7 |
| 20260831165209 | 30 | 77 | 0.0 | 6.4 | 0.00 | 2.84 | 0.03 | 70 | 1019.1 |
| 20260831164157 | 30 | 53 | 0.0 | 0.0 | 0.00 | 2.84 | 0.03 | 71 | 1019.0 |
| 20260831163137 | 29 | 5 | 0.0 | 0.0 | 0.00 | 2.84 | 0.03 | 71 | 1019.2 |
| 20260831162145 | 29 | 5 | 0.0 | 1.6 | 0.00 | 2.84 | 0.03 | 72 | 1019.4 |
| 20260831161126 | 28 | 5 | 0.0 | 0.0 | 0.00 | 2.84 | 0.03 | 76 | 1019.6 |
| 20260831160123 | 28 | 61 | 0.0 | 4.8 | 0.00 | 2.84 | 0.03 | 76 | 1019.5 |
| 20260831155122 | 29 | 115 | 0.0 | 4.8 | 0.00 | 2.84 | 0.03 | 73 | 1019.2 |
| 20260831152939 | 28 | 105 | 1.6 | 9.7 | 0.00 | 2.84 | 0.03 | 75 | 1019.1 |
| 20260831145718 | 27 | 13 | 0.0 | 0.0 | 0.00 | 2.84 | 0.03 | 83 | 1019.4 |
| 20260831144740 | 27 | 83 | 0.0 | 0.0 | 0.00 | 2.84 | 0.03 | 82 | 1019.4 |
| 20260831143751 | 27 | 103 | 0.0 | 0.0 | 0.00 | 2.84 | 0.03 | 82 | 1019.2 |
| 20260831142751 | 27 | 114 | 0.0 | 8.0 | 0.00 | 2.84 | 0.03 | 81 | 1019.1 |
| 20260831141730 | 27 | 120 | 0.0 | 6.4 | 0.00 | 2.84 | 0.03 | 84 | 1018.9 |
| 20260831140742 | 26 | 78 | 0.0 | 8.0 | 0.00 | 2.84 | 0.03 | 86 | 1019.0 |
| 20260831135737 | 25 | 100 | 0.0 | 0.0 | 0.00 | 2.84 | 0.03 | 89 | 1019.1 |
| 20260831134746 | 25 | 96 | 0.0 | 0.0 | 0.00 | 2.84 | 0.03 | 90 | 1019.2 |
| 20260831131540 | 24 | 234 | 0.0 | 0.0 | 0.00 | 2.84 | 0.03 | 92 | 1019.3 |
| 20260831130515 | 23 | 234 | 0.0 | 0.0 | 0.00 | 2.84 | 0.03 | 93 | 1019.3 |
| 20260831125504 | 23 | 234 | 0.0 | 0.0 | 0.00 | 2.84 | 0.03 | 95 | 1019.3 |
| 20260831124525 | 22 | 234 | 0.0 | 0.0 | 0.00 | 2.84 | 0.03 | 95 | 1019.2 |
| 20260831123549 | 22 | 234 | 0.0 | 0.0 | 0.00 | 2.84 | 0.03 | 95 | 1019.1 |
| 20260831122600 | 22 | 234 | 0.0 | 0.0 | 0.00 | 2.84 | 0.03 | 95 | 1019.0 |
| 20260831121615 | 22 | 234 | 0.0 | 1.6 | 0.00 | 2.84 | 0.03 | 95 | 1018.9 |
| 20260831120543 | 22 | 234 | 0.0 | 0.0 | 0.00 | 2.84 | 0.03 | 95 | 1019.0 |
| 20260831114403 | 21 | 234 | 0.0 | 0.0 | 0.00 | 2.84 | 0.03 | 95 | 1018.9 |
| 20260831113338 | 21 | 234 | 0.0 | 0.0 | 0.00 | 2.84 | 0.03 | 95 | 1018.7 |
| 20260831112334 | 21 | 234 | 0.0 | 0.0 | 0.00 | 2.84 | 0.03 | 95 | 1018.5 |
| 20260831111302 | 21 | 234 | 0.0 | 0.0 | 0.00 | 2.84 | 0.03 | 95 | 1018.5 |
| 20260831105148 | 21 | 234 | 0.0 | 0.0 | 0.00 | 2.84 | 0.03 | 95 | 1018.3 |
| 20260831104131 | 21 | 234 | 0.0 | 0.0 | 0.00 | 2.84 | 0.03 | 95 | 1018.2 |
| 20260831103058 | 21 | 234 | 0.0 | 0.0 | 0.00 | 2.84 | 0.03 | 95 | 1018.0 |
| 20260831100936 | 21 | 234 | 0.0 | 0.0 | 0.00 | 2.84 | 0.03 | 95 | 1018.0 |
| 20260831095924 | 21 | 234 | 0.0 | 0.0 | 0.00 | 2.84 | 0.03 | 95 | 1018.1 |
| 20260831094921 | 21 | 234 | 0.0 | 0.0 | 0.00 | 2.84 | 0.03 | 95 | 1017.9 |
| 20260831093917 | 21 | 234 | 0.0 | 0.0 | 0.00 | 2.84 | 0.03 | 95 | 1018.0 |
| 20260831092850 | 21 | 234 | 0.0 | 0.0 | 0.00 | 2.84 | 0.03 | 95 | 1017.9 |
| 20260831091828 | 21 | 234 | 0.0 | 0.0 | 0.00 | 2.84 | 0.03 | 95 | 1017.9 |
| 20260831090832 | 21 | 234 | 0.0 | 0.0 | 0.00 | 2.84 | 0.03 | 95 | 1017.9 |
| 20260831085837 | 21 | 234 | 0.0 | 0.0 | 0.00 | 2.84 | 0.03 | 95 | 1017.9 |
| 20260831084844 | 21 | 234 | 0.0 | 0.0 | 0.00 | 2.84 | 0.03 | 95 | 1017.8 |
| 20260831083843 | 21 | 234 | 0.0 | 0.0 | 0.00 | 2.84 | 0.03 | 95 | 1017.8 |
| 20260831082819 | 21 | 234 | 0.0 | 0.0 | 0.00 | 2.84 | 0.03 | 95 | 1017.8 |
| 20260831081805 | 21 | 234 | 0.0 | 0.0 | 0.00 | 2.84 | 0.03 | 95 | 1017.8 |
| 20260831075604 | 21 | 234 | 0.0 | 0.0 | 0.00 | 2.82 | 0.00 | 94 | 1017.6 |
| 20260831074533 | 21 | 234 | 0.0 | 0.0 | 0.00 | 2.82 | 0.00 | 94 | 1017.6 |
| 20260831073550 | 21 | 234 | 0.0 | 0.0 | 0.00 | 2.82 | 0.00 | 95 | 1017.6 |
| 20260831072550 | 21 | 234 | 0.0 | 0.0 | 0.00 | 2.82 | 0.00 | 94 | 1017.6 |
| 20260831071553 | 21 | 234 | 0.0 | 0.0 | 0.00 | 2.82 | 0.00 | 94 | 1017.6 |
| 20260831070617 | 21 | 234 | 0.0 | 0.0 | 0.00 | 2.82 | 0.00 | 94 | 1017.7 |
| 20260831064431 | 22 | 234 | 0.0 | 0.0 | 0.00 | 2.82 | 0.00 | 94 | 1017.8 |
| 20260831062257 | 22 | 234 | 0.0 | 0.0 | 0.00 | 2.82 | 0.00 | 94 | 1017.9 |
| 20260831061257 | 22 | 234 | 0.0 | 0.0 | 0.00 | 2.82 | 0.00 | 94 | 1018.0 |
| 20260831060236 | 22 | 234 | 0.0 | 0.0 | 0.00 | 2.82 | 0.00 | 94 | 1018.0 |
| 20260831055204 | 22 | 234 | 0.0 | 0.0 | 0.00 | 2.82 | 0.00 | 94 | 1018.2 |
| 20260831054150 | 22 | 234 | 0.0 | 0.0 | 0.00 | 2.82 | 0.00 | 94 | 1018.1 |
| 20260831053140 | 22 | 234 | 0.0 | 0.0 | 0.00 | 2.82 | 0.00 | 94 | 1018.1 |
| 20260831051012 | 22 | 234 | 0.0 | 0.0 | 0.00 | 2.82 | 0.00 | 94 | 1018.2 |
| 20260831050016 | 22 | 234 | 0.0 | 0.0 | 0.00 | 2.82 | 0.00 | 94 | 1018.3 |
| 20260831045022 | 22 | 234 | 0.0 | 0.0 | 0.00 | 2.82 | 0.00 | 94 | 1018.4 |
| 20260831043948 | 22 | 234 | 0.0 | 0.0 | 0.00 | 2.82 | 0.00 | 94 | 1018.4 |
| 20260831043013 | 22 | 234 | 0.0 | 0.0 | 0.00 | 2.82 | 0.00 | 94 | 1018.3 |
| 20260831042027 | 22 | 234 | 0.0 | 0.0 | 0.00 | 2.82 | 0.00 | 94 | 1018.4 |
| 20260831040013 | 22 | 234 | 0.0 | 0.0 | 0.00 | 2.82 | 0.00 | 94 | 1018.5 |
| 20260831033915 | 22 | 234 | 0.0 | 0.0 | 0.00 | 2.82 | 2.79 | 94 | 1018.4 |
| 20260831032932 | 22 | 234 | 0.0 | 0.0 | 0.00 | 2.82 | 2.79 | 94 | 1018.4 |
| 20260831025745 | 22 | 234 | 0.0 | 0.0 | 0.00 | 2.82 | 2.79 | 93 | 1018.5 |
| 20260831024726 | 22 | 234 | 0.0 | 0.0 | 0.00 | 2.82 | 2.79 | 93 | 1018.5 |
| 20260831023700 | 22 | 234 | 0.0 | 0.0 | 0.00 | 2.82 | 2.79 | 93 | 1018.7 |
| 20260831022647 | 22 | 234 | 0.0 | 0.0 | 0.00 | 2.82 | 2.79 | 93 | 1018.7 |
| 20260831021651 | 22 | 234 | 0.0 | 0.0 | 0.00 | 2.82 | 2.79 | 93 | 1018.8 |
| 20260831020653 | 22 | 234 | 0.0 | 0.0 | 0.00 | 2.82 | 2.79 | 93 | 1018.7 |
| 20260831015704 | 22 | 234 | 0.0 | 0.0 | 0.00 | 2.82 | 2.79 | 92 | 1018.8 |
| 20260831014633 | 22 | 234 | 0.0 | 0.0 | 0.00 | 2.82 | 2.79 | 92 | 1018.9 |
| 20260831013631 | 22 | 234 | 0.0 | 0.0 | 0.00 | 2.82 | 2.79 | 92 | 1018.9 |
| 20260831012629 | 22 | 234 | 0.0 | 0.0 | 0.00 | 2.82 | 2.79 | 93 | 1018.8 |
| 20260831011557 | 22 | 234 | 0.0 | 0.0 | 0.00 | 2.82 | 2.79 | 92 | 1018.7 |
| 20260831010548 | 22 | 234 | 0.0 | 0.0 | 0.00 | 2.82 | 2.79 | 92 | 1018.6 |